"Pseudo-MPEC" for P10LfML

Created 2019 Jan 15 15:18:15 UT using Find_Orb

Click here for an explanation of pseudo-MPECs

 
 Astrometry: 
     P10LfML  C2019 01 09P'7T'Wrr4?GhgeO\:_xThAstrometry=pE-DRD[.r15/f@85/W6wF51
     P10LfML  C2019 01 09ZJ.Q@S8_\mTe]=+y^Dhm!%j5p\redacted;+5pUCGPP_H6u))B@FF51
     P10LfML  C2019 01 09MAAMVkca'3qJZ!!sI7HtQH;Ru5click\Gw4Ns/UO!?7(RbRgc-:fF51
     P10LfML  C2019 01 09hD#7kT%?M4tWimHK0XAMe[9dx`7!.%!R\8Cjq,kOhereO^w!^-Y%F51
     P10LfML  C2019 01 11.30609 09 45 54.93 +50 10 59.5    ~1B8I 21.5 GVNEOCPI52
     P10LfML  C2019 01 11.30859 09 45 55.23 +50 11 02.2    ~1B8I 22.0 GVNEOCPI52
     P10LfML  C2019 01 11.31108 09 45 55.45 +50 11 06.2    ~1B8I 21.8 GVNEOCPI52
     P10LfML  C2019 01 11.31358 09 45 55.75 +50 11 09.9    ~1B8I 21.8 GVNEOCPI52
     P10LfML ^C2019 01 11.37584709 46 03.798+50 12 25.70   ~1BKI 21.16GVNEOCP568
     P10LfML ^C2019 01 11.37679409 46 03.906+50 12 26.94   ~1BKI 21.18GVNEOCP568
     P10LfML ^C2019 01 11.37776409 46 04.011+50 12 28.20   ~1BKI 21.24GVNEOCP568
     P10LfML  C2019 01 12.29997 09 47 51.78 +50 31 11.6    ~1C8I 21.7 GVNEOCPI52
     P10LfML  C2019 01 12.30330 09 47 52.16 +50 31 15.9    ~1C8I 21.4 GVNEOCPI52
     P10LfML  C2019 01 12.30663 09 47 52.52 +50 31 20.5    ~1C8I 21.6 GVNEOCPI52
     P10LfML  C2019 01 12.30995 09 47 52.89 +50 31 24.3    ~1C8I 21.8 GVNEOCPI52
     P10LfML  C2019 01 14gynvXJN:L+4hfor#t3RIr)J06)jJ(_wj,ejU;H%i=AoU8YOKeSwnF51
     P10LfML  C2019 01 14ik+3wJWRe1/wS$yb2lBwE?k'OcY],$B@VGQ.2W@u.MTa5Js'lp2;F51
     P10LfML  C2019 01 14-QJMaqXp]6j3xexplanation=g`,kY4^*npEwcjD6KQBOX)F6S^wF51

Station data:
(568) Mauna Kea  (N19.826116 W155.472200)  US/Hawaii.
(F51) Pan-STARRS 1, Haleakala  (N20.707235 W156.255910)  US/Hawaii.
   Observers N. Primak, A. Schultz, S. Watters, J. Thiel, T. Goggia. Measurer
   PS1 Science Consortium. 1.8-m Ritchey-Chrétien + CCD.
(I52) Steward Observatory, Mt. Lemmon Station  (N32.442547 W110.788920)
   US/Arizona.  Observers B. M. Africano, E. J. Christensen, G. A. Farneth,
   D. C. Fuls, A. R. Gibbs, A. D. Grauer, H. Groeller, J. A. Johnson, R. A.
   Kowalski, S. M. Larson, G. J. Leonard, R. L. Seaman, F. C. Shelly. 1.0-m
   reflector + CCD.

Orbital elements:  P10LfML
   Perihelion 2019 Feb 12.555906 +/- 0.237 TT = 13:20:30 (JD 2458527.055906)
Epoch 2019 Jan 14.0 TT = JDT 2458497.5   Earth MOID: 0.3820   AutoNEOCP
M 351.50215679 +/- 0.18             (J2000 ecliptic)
n   0.28751759 +/- 0.00427          Peri.   88.47460 +/- 0.46
a   2.27349025 +/- 0.0225           Node    52.86218 +/- 0.27
e   0.4300380 +/- 0.00425           Incl.   11.40821 +/- 0.08
P   3.43                   H 21.9   G  0.15   U  9.1  
q 1.29580302 +/- 0.00324    Q 3.25117747 +/- 0.0427
From 18 observations 2019 Jan. 9-14; mean residual 0".19
Residuals in arcseconds: 
190109 F51  .01+  .04-    190111 I52  .28-  .17+    190112 I52  .05+  .12-    
190109 F51  .01-  .07-    190111 I52  .02-  .67+    190112 I52  .08+  .28+    
190109 F51  .00   .04+    190111 568  .01-  .02+    190112 I52  .22+  .09-    
190109 F51  .03+  .05+    190111 568  .02+  .02+    190114 F51  .05-  .03+    
190111 I52  .06-  .13-    190111 568  .01-  .01+    190114 F51  .02-  .04+    
190111 I52  .21+  .64-    190112 I52  .17-  .23-    190114 F51  .04+  .05-    

Ephemerides (geocentric):
Date (UTC) HH   RA              Dec         delta   r     elong  mag " sig PA
---- -- -- --  -------------   -----------  ------ ------ -----  --- ---- ---
2019 01 15 15  09 54 08.129   +51 35 29.32  .40735 1.3248 140.9 21.8 .196 111
2019 01 15 16  09 54 12.722   +51 36 15.63  .40726 1.3247 140.9 21.8 .201 111
2019 01 15 17  09 54 17.311   +51 37 01.89  .40717 1.3246 140.9 21.8 .206 112
2019 01 15 18  09 54 21.896   +51 37 48.09  .40708 1.3245 140.9 21.8 .210 112
2019 01 15 19  09 54 26.478   +51 38 34.24  .40699 1.3244 140.9 21.8 .215 113
2019 01 15 20  09 54 31.056   +51 39 20.33  .40691 1.3244 140.9 21.8 .220 113
2019 01 15 21  09 54 35.630   +51 40 06.36  .40682 1.3243 140.9 21.8 .225 113
2019 01 15 22  09 54 40.201   +51 40 52.34  .40673 1.3242 140.9 21.8 .230 114
2019 01 15 23  09 54 44.769   +51 41 38.27  .40664 1.3241 140.9 21.7 .235 114
2019 01 16 00  09 54 49.332   +51 42 24.14  .40655 1.3240 140.8 21.7 .240 114
2019 01 16 01  09 54 53.892   +51 43 09.95  .40646 1.3239 140.8 21.7 .245 115
2019 01 16 02  09 54 58.449   +51 43 55.71  .40638 1.3239 140.8 21.7 .250 115
2019 01 16 03  09 55 03.002   +51 44 41.42  .40629 1.3238 140.8 21.7 .255 115
2019 01 16 04  09 55 07.551   +51 45 27.07  .40620 1.3237 140.8 21.7 .260 115
2019 01 16 05  09 55 12.096   +51 46 12.66  .40611 1.3236 140.8 21.7 .265 116
2019 01 16 06  09 55 16.638   +51 46 58.19  .40603 1.3235 140.8 21.7 .271 116
2019 01 16 07  09 55 21.176   +51 47 43.67  .40594 1.3234 140.8 21.7 .276 116
2019 01 16 08  09 55 25.711   +51 48 29.10  .40585 1.3234 140.8 21.7 .281 116
2019 01 16 09  09 55 30.241   +51 49 14.46  .40577 1.3233 140.8 21.7 .287 116
2019 01 16 10  09 55 34.769   +51 49 59.77  .40568 1.3232 140.8 21.7 .292 117
2019 01 16 11  09 55 39.292   +51 50 45.03  .40559 1.3231 140.8 21.7 .298 117
2019 01 16 12  09 55 43.812   +51 51 30.22  .40551 1.3230 140.8 21.7 .304 117
2019 01 16 13  09 55 48.328   +51 52 15.36  .40542 1.3229 140.8 21.7 .309 117
2019 01 16 14  09 55 52.840   +51 53 00.45  .40534 1.3229 140.8 21.7 .315 117
2019 01 16 15  09 55 57.349   +51 53 45.47  .40525 1.3228 140.8 21.7 .321 117
2019 01 16 16  09 56 01.853   +51 54 30.44  .40517 1.3227 140.8 21.7 .326 117
2019 01 16 17  09 56 06.355   +51 55 15.35  .40508 1.3226 140.8 21.7 .332 118
2019 01 16 18  09 56 10.852   +51 56 00.21  .40500 1.3225 140.8 21.7 .338 118
2019 01 16 19  09 56 15.346   +51 56 45.00  .40491 1.3225 140.8 21.7 .344 118
2019 01 16 20  09 56 19.835   +51 57 29.74  .40483 1.3224 140.8 21.7 .350 118
2019 01 16 21  09 56 24.322   +51 58 14.42  .40474 1.3223 140.8 21.7 .356 118
2019 01 16 22  09 56 28.804   +51 58 59.05  .40466 1.3222 140.8 21.7 .362 118
2019 01 16 23  09 56 33.283   +51 59 43.61  .40457 1.3221 140.8 21.7 .368 118
2019 01 17 00  09 56 37.757   +52 00 28.12  .40449 1.3221 140.8 21.7 .374 118
2019 01 17 01  09 56 42.229   +52 01 12.57  .40441 1.3220 140.8 21.7 .380 118
2019 01 17 02  09 56 46.696   +52 01 56.96  .40432 1.3219 140.8 21.7 .386 118
2019 01 17 03  09 56 51.159   +52 02 41.29  .40424 1.3218 140.8 21.7 .392 118
2019 01 17 04  09 56 55.619   +52 03 25.57  .40416 1.3217 140.8 21.7 .399 118
2019 01 17 05  09 57 00.075   +52 04 09.78  .40408 1.3216 140.8 21.7 .405 118
2019 01 17 06  09 57 04.527   +52 04 53.94  .40399 1.3216 140.8 21.7 .411 119
2019 01 17 07  09 57 08.975   +52 05 38.04  .40391 1.3215 140.8 21.7 .418 119
2019 01 17 08  09 57 13.420   +52 06 22.07  .40383 1.3214 140.8 21.7 .424 119
2019 01 17 09  09 57 17.860   +52 07 06.05  .40375 1.3213 140.8 21.7 .430 119
2019 01 17 10  09 57 22.297   +52 07 49.97  .40366 1.3212 140.8 21.7 .437 119
2019 01 17 11  09 57 26.730   +52 08 33.84  .40358 1.3212 140.8 21.7 .443 119
2019 01 17 12  09 57 31.159   +52 09 17.64  .40350 1.3211 140.7 21.7 .450 119
2019 01 17 13  09 57 35.584   +52 10 01.38  .40342 1.3210 140.7 21.7 .457 119
2019 01 17 14  09 57 40.005   +52 10 45.06  .40334 1.3209 140.7 21.7 .463 119